Weather in Gniloye

Russia / Kursk Oblast     51°39′26″N   36°59′13″E
temp.,
°C
wind,
m/s
gust,
m/s
humid.,
%
clouds,
%
prec.,
mm/h
press.,
hPa
HPBL,
m
21 january, fri
fri2100:00−6s71594100 0.4 1009496
03:00−6s71495100 0.7 1007457
06:00−5s61495100 1.8 1004541
09:00−4ssw51196100 3.8 1002566
12:00−3sw61096100 0.9 1002644
15:00−3sw6118981 1.1 1002836
18:00−5ssw71493100 0.1 1002592
21:00−5ssw81593100 0.3 1002757
22 january, sat
sat2200:00−5ssw81593100 0.6 1003712
03:00−5ssw81492100 1.0 1004617
06:00−6ssw61294100 0.1 1005468
09:00−8ssw6119497 0.3 1007333
12:00−7ssw5109499 0.2 1009369
15:00−6ssw4894100 0.3 1010371
18:00−8s369698 0.1 1012113
21:00−6ssw379392 0.2 1013140
23 january, sun
sun2300:00−9s249787 0.1 101651
03:00−13s229984 0.2 101721
06:00−16sse2210092 0.0 102013
09:00−18ese22100100 0.1 102313
12:00−10ene2498100 0.1 1024104
15:00−9ne4897100 0.1 1024216
18:00−10ne51295100 0.0 1026253
21:00−9nne61394100 0.0 1026317
24 january, mon
mon2400:00−8nne71695100 0.3 1025435
03:00−7ne71495100 1.1 1025492
06:00−5ne7149597 1.3 1024548
09:00−5ene71292100 1.4 1025541
12:00−6ene6109494 0.3 1027412
15:00−7ene5995100 0.3 1027368
18:00−8ne4996100 0.0 1027235
21:00−12ne4998100 0.1 1027138
25 january, tue
tue2500:00−15ne3410096 0.0 102746
03:00−14ne3599100 0.1 102661
06:00−14ene249897 0.1 102545
09:00−13e2398100 0.1 102544
12:00−8se2495100 0.1 1024171
15:00−6se249581 0.1 1022236
18:00−8se239778 0.1 102253
21:00−9se259879 0.3 102271